Location: Unspecified
(54.1780°N, 0.0000°E)
Time: 19:53:38
(UTC+00:00)

Altair - Pass Details

Date: 23 June 2019
Orbit: 1501 x 1683 km, 47.2° (Epoch: 21 August)

Event Time Altitude Azimuth Distance (km) Brightness Sun altitude
Rises 22:08:29 0° 258° (WSW) 4,751 10.3 -8.6°
Reaches altitude 10° 22:11:33 10° 255° (WSW) 3,791 9.7 -8.8°
Maximum altitude 22:20:58 59° 180° (S) 1,842 7.6 -9.4°
Drops below altitude 10° 22:30:43 10° 104° (ESE) 3,920 9.3 -9.9°
Sets 22:33:57 0° 101° (ESE) 4,921 9.8 -10.1°
